| time (UTC) | temp F | wind direction | speed MPH | gust MPH | rain 1hr in | rain 24hr in | rain mn in | humidity % | barometer mb |
| 20260905012031 | 52 | 280 | 14.0 | 23.0 | 0.00 | 0.00 | 0.00 | 99 | |
| 20260905001746 | 52 | 280 | 17.0 | 31.0 | 0.00 | 0.00 | 0.00 | 93 | |
| 20260904231801 | 54 | 270 | 17.0 | 32.0 | 0.00 | 0.00 | 0.00 | 99 | |
| 20260904222146 | 54 | 270 | 13.0 | 24.0 | 0.00 | 0.00 | 0.00 | 99 | |
| 20260904211747 | 54 | 360 | 13.0 | 0.0 | 0.00 | 0.00 | 0.00 | 93 | |
| 20260904201746 | 55 | 20 | 6.0 | 0.0 | 0.00 | 0.00 | 0.00 | 87 | |
| 20260904192032 | 57 | 360 | 10.0 | 0.0 | 0.00 | 0.00 | 0.00 | 82 | |
| 20260904181730 | 66 | 280 | 6.0 | 17.0 | 0.00 | 0.00 | 0.00 | 72 | |
| 20260904171746 | 68 | 220 | 16.0 | 24.0 | 0.00 | 0.00 | 0.00 | 68 | |
| 20260904162032 | 70 | 210 | 15.0 | 24.0 | 0.00 | 0.00 | 0.00 | 64 | |
| 20260904151747 | 70 | 200 | 18.0 | 25.0 | 0.00 | 0.00 | 0.00 | 68 | |
| 20260904141730 | 70 | 200 | 23.0 | 33.0 | 0.00 | 0.00 | 0.00 | 68 | |
| 20260904131946 | 68 | 210 | 20.0 | 29.0 | 0.00 | 0.00 | 0.00 | 72 | |
| 20260904121730 | 68 | 220 | 23.0 | 36.0 | 0.00 | 0.00 | 0.00 | 72 | |
| 20260904111730 | 66 | 230 | 23.0 | 36.0 | 0.00 | 0.00 | 0.00 | 77 | |
| 20260904102148 | 64 | 230 | 17.0 | 33.0 | 0.00 | 0.00 | 0.00 | 77 | |
| 20260904091746 | 61 | 220 | 15.0 | 22.0 | 0.00 | 0.00 | 0.00 | 93 | |
| 20260904081746 | 59 | 210 | 16.0 | 23.0 | 0.00 | 0.00 | 0.00 | 99 | |
| 20260904061730 | 57 | 220 | 13.0 | 20.0 | 0.00 | 0.00 | 0.00 | 99 | |
| 20260904051730 | 57 | 220 | 10.0 | 0.0 | 0.00 | 0.00 | 0.00 | 99 | |
| 20260904042133 | 57 | 240 | 8.0 | 15.0 | 0.00 | 0.00 | 0.00 | 93 | |
| 20260904031730 | 57 | 240 | 10.0 | 17.0 | 0.00 | 0.00 | 0.00 | 93 | |
| 20260904021731 | 57 | 250 | 9.0 | 16.0 | 0.00 | 0.00 | 0.00 | 93 |